Volver al catálogo

THOR ABLESTAR DEB

ActivoLEO
NORAD 408·DEBRIS·🇺🇸 United States

Lanzado Jun 29, 1961 desde Cape Canaveral Space Force Station

Loading…

Próximos Pases (próximas 24 horas)

TLE

ActualizadoSource: Space-Track

Época: Sep 10, 2026, 11:28 UTC

1   408U 61015EH  26253.47806894  .00000232  00000-0  30477-3 0  9990
2   408  66.7840 265.6009 0057809  61.3612  14.2968 13.77217547317444

Sigue THOR ABLESTAR DEB en tiempo real con AllMySat

Download on the App Store